Weather History for Concord, NH

Change the Weather History Date:

Saturday, March 30, 2013

  Actual Average Record
Temperature  
Mean Temperature 41 °F 38 °F  
Max Temperature 55 °F 49 °F 85 °F (1977)
Min Temperature 26 °F 27 °F 5 °F (1970)
Degree Days  
Heating Degree Days 24 27  
Month to date heating degree days 963 961  
Since 1 July heating degree days 5892 6221  
Cooling Degree Days 0 0  
Month to date cooling degree days 0 0  
Year to date cooling degree days 0 0  
Moisture  
Dew Point 21 °F    
Average Humidity 52    
Maximum Humidity 85    
Minimum Humidity 19    
Precipitation  
Precipitation 0.00 in 0.11 in 1.52 in (2010)
Month to date precipitation 1.59 3.16  
Year to date precipitation 6.68 8.48  
Snow  
Snow 0.00 in 0.20 in 6.10 in (2001)
Month to date snowfall 16.0 10.9  
Since 1 July snowfall 83.2 58.4  
Snow Depth -    
Sea Level Pressure  
Sea Level Pressure 30.06 in    
Wind  
Wind Speed 4 mph (NW)    
Max Wind Speed 16 mph    
Max Gust Speed 22 mph    
Visibility 10 miles    
Events      
T = Trace of Precipitation, MM = Missing Value Source: NWS Daily Summary

Daily Weather History Graph

Daily Weather History Graph

Search for Another Location

Airport:

Trip Planner

Search our weather history database for the weather conditions in past years. The results will help you decide how hot, cold, wet, or windy it might be!

Date:

Astronomy

Mar. 30, 2013 Rise Set
Actual Time 6:31 AM EDT 7:10 PM EDT
Civil Twilight 6:02 AM EDT 7:39 PM EDT
Nautical Twilight 5:28 AM EDT 8:13 PM EDT
Astronomical Twilight 4:53 AM EDT 8:48 PM EDT
Moon 11:20 PM EDT (3/30) 8:17 AM EDT (3/30)
Length of Visible Light 13h 36m
Length of Day
12h 39m
Waning Gibbous, 86% of the Moon is Illuminated
Mar 30
Waning Gibbous
Apr 3
Last Quarter
Apr 10
New
Apr 18
First Quarter
Apr 25
Full

Hourly Weather History & Observations

Time (EDT) Temp. Windchill Dew Point Humidity Pressure Visibility Wind Dir Wind Speed Gust Speed Precip Events Conditions
12:51 AM 37.0 °F - 28.9 °F 73% 30.05 in 10.0 mi Calm Calm - N/A   Partly Cloudy
1:51 AM 34.0 °F 31.0 °F 28.0 °F 79% 30.05 in 10.0 mi West 3.5 mph - N/A   Overcast
2:51 AM 30.0 °F - 27.0 °F 88% 30.05 in 10.0 mi Calm Calm - N/A   Overcast
3:51 AM 32.0 °F - 28.0 °F 85% 30.05 in 10.0 mi Calm Calm - N/A   Overcast
4:51 AM 36.0 °F - 28.9 °F 76% 30.05 in 10.0 mi Calm Calm - N/A   Overcast
5:51 AM 30.0 °F - 27.0 °F 88% 30.06 in 10.0 mi Calm Calm - N/A   Partly Cloudy
6:51 AM 30.0 °F - 26.1 °F 85% 30.07 in 10.0 mi Calm Calm - N/A   Partly Cloudy
7:51 AM 33.1 °F - 28.9 °F 85% 30.09 in 10.0 mi Calm Calm - N/A   Clear
8:51 AM 41.0 °F 37.1 °F 28.0 °F 60% 30.08 in 10.0 mi NNW 5.8 mph - N/A   Clear
9:51 AM 46.0 °F 40.6 °F 26.1 °F 46% 30.08 in 10.0 mi North 11.5 mph - N/A   Clear
10:51 AM 50.0 °F - 21.9 °F 33% 30.07 in 10.0 mi Variable 6.9 mph - N/A   Clear
11:51 AM 50.0 °F - 18.0 °F 28% 30.06 in 10.0 mi NW 9.2 mph 16.1 mph N/A   Clear
12:51 PM 52.0 °F - 18.0 °F 26% 30.05 in 10.0 mi NNW 12.7 mph 18.4 mph N/A   Clear
1:51 PM 53.1 °F - 17.1 °F 24% 30.03 in 10.0 mi Variable 5.8 mph 17.3 mph N/A   Clear
2:51 PM 54.0 °F - 18.0 °F 24% 30.02 in 10.0 mi West 10.4 mph 18.4 mph N/A   Partly Cloudy
3:51 PM 52.0 °F - 14.0 °F 22% 30.01 in 10.0 mi WNW 8.1 mph 16.1 mph N/A   Clear
4:51 PM 54.0 °F - 12.9 °F 20% 30.01 in 10.0 mi NW 10.4 mph - N/A   Clear
5:51 PM 51.1 °F - 12.0 °F 21% 30.03 in 10.0 mi WNW 12.7 mph - N/A   Clear
6:51 PM 48.0 °F - 12.0 °F 24% 30.05 in 10.0 mi NNW 5.8 mph - N/A   Clear
7:51 PM 46.0 °F 44.8 °F 12.0 °F 25% 30.06 in 10.0 mi NNW 3.5 mph - N/A   Clear
8:51 PM 39.0 °F - 15.1 °F 38% 30.09 in 10.0 mi Calm Calm - N/A   Clear
9:51 PM 33.1 °F - 17.1 °F 52% 30.10 in 10.0 mi Calm Calm - N/A   Clear
10:51 PM 28.9 °F - 18.0 °F 64% 30.10 in 10.0 mi Calm Calm - N/A   Clear
11:51 PM 28.0 °F - 18.0 °F 66% 30.11 in 10.0 mi Calm Calm - N/A   Clear